Time,TemperatureF,DewpointF,PressureIn,WindDirection,WindDirectionDegrees,WindSpeedMPH,WindSpeedGustMPH,Humidity,HourlyPrecipIn,Conditions,Clouds,dailyrainin,SoftwareType,DateUTC
2018-05-23 00:14:00,75.1,71.0,30.10,East,89,4.0,5.0,87,0.00,,,0.00,weatherlink.com 1.10,2018-05-23 04:14:00,
2018-05-23 00:30:00,74.9,71.0,30.09,ENE,60,1.0,3.0,87,0.00,,,0.00,weatherlink.com 1.10,2018-05-23 04:30:00,
2018-05-23 00:45:00,75.0,71.0,30.09,SE,127,3.0,5.0,87,0.00,,,0.00,weatherlink.com 1.10,2018-05-23 04:45:00,
2018-05-23 01:00:00,75.1,71.0,30.08,East,94,2.0,6.0,87,0.00,,,0.00,weatherlink.com 1.10,2018-05-23 05:00:00,
2018-05-23 01:15:00,75.0,71.0,30.08,East,82,3.0,6.0,87,0.00,,,0.00,weatherlink.com 1.10,2018-05-23 05:15:00,
2018-05-23 01:30:00,74.9,71.0,30.08,ESE,113,1.0,5.0,87,0.00,,,0.00,weatherlink.com 1.10,2018-05-23 05:30:00,
2018-05-23 01:45:00,74.8,71.0,30.08,ESE,114,0.0,6.0,87,0.00,,,0.00,weatherlink.com 1.10,2018-05-23 05:45:00,
2018-05-23 02:00:00,74.7,71.0,30.08,ESE,103,1.0,5.0,88,0.00,,,0.00,weatherlink.com 1.10,2018-05-23 06:00:00,
2018-05-23 02:15:00,74.5,71.0,30.07,ENE,64,2.0,4.0,88,0.00,,,0.00,weatherlink.com 1.10,2018-05-23 06:15:00,
2018-05-23 02:30:00,74.4,71.0,30.07,ESE,113,2.0,6.0,88,0.00,,,0.00,weatherlink.com 1.10,2018-05-23 06:30:00,
2018-05-23 02:45:00,74.3,71.0,30.07,NE,39,1.0,8.0,88,0.00,,,0.00,weatherlink.com 1.10,2018-05-23 06:45:00,
2018-05-23 03:00:00,74.2,71.0,30.07,East,94,1.0,7.0,88,0.00,,,0.00,weatherlink.com 1.10,2018-05-23 07:00:00,
2018-05-23 03:15:00,73.1,69.0,30.07,SE,125,0.0,7.0,88,0.00,,,0.00,weatherlink.com 1.10,2018-05-23 07:15:00,
2018-05-23 03:30:00,-999.9,-99.9,30.06,North,-9999,-999.9,-999.0,-999,0.00,,,0.00,weatherlink.com 1.10,2018-05-23 07:30:00,
2018-05-23 03:45:00,-999.9,-99.9,30.07,North,-9999,-999.9,-999.0,-999,0.00,,,0.00,weatherlink.com 1.10,2018-05-23 07:45:00,
2018-05-23 04:00:00,-999.9,-99.9,30.06,North,-9999,-999.9,-999.0,-999,0.00,,,0.00,weatherlink.com 1.10,2018-05-23 08:00:00,
2018-05-23 04:15:00,-999.9,-99.9,30.06,North,-9999,-999.9,-999.0,-999,0.00,,,0.00,weatherlink.com 1.10,2018-05-23 08:15:00,
2018-05-23 04:30:00,-999.9,-99.9,30.06,North,-9999,-999.9,-999.0,-999,0.00,,,0.00,weatherlink.com 1.10,2018-05-23 08:30:00,
2018-05-23 04:45:00,-999.9,-99.9,30.07,North,-9999,-999.9,-999.0,-999,0.00,,,0.00,weatherlink.com 1.10,2018-05-23 08:45:00,
2018-05-23 05:00:00,-999.9,-99.9,30.07,North,-9999,-999.9,-999.0,-999,0.00,,,0.00,weatherlink.com 1.10,2018-05-23 09:00:00,
2018-05-23 05:15:00,-999.9,-99.9,30.07,North,-9999,-999.9,-999.0,-999,0.00,,,0.00,weatherlink.com 1.10,2018-05-23 09:15:00,
2018-05-23 05:30:00,-999.9,-99.9,30.07,North,-9999,-999.9,-999.0,-999,0.00,,,0.00,weatherlink.com 1.10,2018-05-23 09:30:00,
2018-05-23 05:46:00,-999.9,-99.9,30.07,North,-9999,-999.9,-999.0,-999,0.00,,,0.00,weatherlink.com 1.10,2018-05-23 09:46:00,
2018-05-23 06:01:00,-999.9,-99.9,30.08,North,-9999,-999.9,-999.0,-999,0.00,,,0.00,weatherlink.com 1.10,2018-05-23 10:01:00,
2018-05-23 06:16:00,-999.9,-99.9,30.08,North,-9999,-999.9,-999.0,-999,0.00,,,0.00,weatherlink.com 1.10,2018-05-23 10:16:00,
2018-05-23 06:31:00,-999.9,-99.9,30.09,North,-9999,-999.9,-999.0,-999,0.00,,,0.00,weatherlink.com 1.10,2018-05-23 10:31:00,
2018-05-23 06:46:00,-999.9,-99.9,30.09,North,-9999,-999.9,-999.0,-999,0.00,,,0.00,weatherlink.com 1.10,2018-05-23 10:46:00,
2018-05-23 07:01:00,-999.9,-99.9,30.09,North,-9999,-999.9,-999.0,-999,0.00,,,0.00,weatherlink.com 1.10,2018-05-23 11:01:00,
2018-05-23 07:16:00,-999.9,-99.9,30.10,North,-9999,-999.9,-999.0,-999,0.00,,,0.00,weatherlink.com 1.10,2018-05-23 11:16:00,
2018-05-23 07:31:00,-999.9,-99.9,30.10,North,-9999,-999.9,-999.0,-999,0.00,,,0.00,weatherlink.com 1.10,2018-05-23 11:31:00,
2018-05-23 07:46:00,74.4,71.0,30.10,ESE,110,0.0,6.0,90,0.00,,,0.00,weatherlink.com 1.10,2018-05-23 11:46:00,
2018-05-23 08:01:00,75.4,72.0,30.11,ESE,110,4.0,7.0,88,0.00,,,0.00,weatherlink.com 1.10,2018-05-23 12:01:00,
2018-05-23 08:16:00,76.3,72.0,30.11,SE,124,4.0,6.0,86,0.00,,,0.00,weatherlink.com 1.10,2018-05-23 12:16:00,
2018-05-23 08:31:00,76.8,72.0,30.11,ESE,122,6.0,9.0,84,0.00,,,0.00,weatherlink.com 1.10,2018-05-23 12:31:00,
2018-05-23 08:46:00,77.6,72.0,30.12,ESE,120,5.0,10.0,82,0.00,,,0.00,weatherlink.com 1.10,2018-05-23 12:46:00,
2018-05-23 09:01:00,78.2,72.0,30.12,ESE,105,7.0,8.0,82,0.00,,,0.00,weatherlink.com 1.10,2018-05-23 13:01:00,
2018-05-23 09:16:00,78.8,73.0,30.12,ESE,103,4.0,8.0,81,0.00,,,0.00,weatherlink.com 1.10,2018-05-23 13:16:00,
2018-05-23 09:31:00,79.2,73.0,30.12,SE,141,2.0,9.0,80,0.00,,,0.00,weatherlink.com 1.10,2018-05-23 13:31:00,
2018-05-23 09:46:00,79.7,73.0,30.12,ESE,122,6.0,10.0,79,0.00,,,0.00,weatherlink.com 1.10,2018-05-23 13:46:00,
2018-05-23 10:02:00,79.6,73.0,30.12,ESE,120,7.0,12.0,80,0.00,,,0.00,weatherlink.com 1.10,2018-05-23 14:02:00,
2018-05-23 10:16:00,79.7,72.0,30.12,East,101,4.0,11.0,78,0.00,,,0.00,weatherlink.com 1.10,2018-05-23 14:16:00,
2018-05-23 10:32:00,80.4,72.0,30.12,ESE,105,8.0,10.0,76,0.00,,,0.00,weatherlink.com 1.10,2018-05-23 14:32:00,
2018-05-23 10:47:00,81.3,73.0,30.12,SE,141,3.0,9.0,75,0.00,,,0.00,weatherlink.com 1.10,2018-05-23 14:47:00,
2018-05-23 11:02:00,82.0,73.0,30.13,SE,137,5.0,8.0,73,0.00,,,0.00,weatherlink.com 1.10,2018-05-23 15:02:00,
2018-05-23 11:17:00,82.5,73.0,30.13,SE,125,8.0,8.0,72,0.00,,,0.00,weatherlink.com 1.10,2018-05-23 15:17:00,
2018-05-23 11:32:00,83.2,72.0,30.12,SE,146,6.0,8.0,70,0.00,,,0.00,weatherlink.com 1.10,2018-05-23 15:32:00,
2018-05-23 11:47:00,84.1,72.0,30.12,SSE,157,2.0,8.0,68,0.00,,,0.00,weatherlink.com 1.10,2018-05-23 15:47:00,
2018-05-23 12:02:00,84.5,72.0,30.12,SE,124,4.0,6.0,67,0.00,,,0.00,weatherlink.com 1.10,2018-05-23 16:02:00,
2018-05-23 12:17:00,84.9,71.0,30.11,SE,136,3.0,8.0,64,0.00,,,0.00,weatherlink.com 1.10,2018-05-23 16:17:00,
2018-05-23 12:32:00,85.6,72.0,30.11,SSE,153,3.0,7.0,64,0.00,,,0.00,weatherlink.com 1.10,2018-05-23 16:32:00,
2018-05-23 12:47:00,85.9,72.0,30.11,ESE,116,3.0,6.0,63,0.00,,,0.00,weatherlink.com 1.10,2018-05-23 16:47:00,
2018-05-23 13:02:00,86.7,71.0,30.11,SW,233,1.0,7.0,60,0.00,,,0.00,weatherlink.com 1.10,2018-05-23 17:02:00,
2018-05-23 13:17:00,87.8,71.0,30.10,SSE,155,8.0,8.0,58,0.00,,,0.00,weatherlink.com 1.10,2018-05-23 17:17:00,
2018-05-23 13:32:00,88.5,71.0,30.09,SE,141,2.0,6.0,56,0.00,,,0.00,weatherlink.com 1.10,2018-05-23 17:32:00,
2018-05-23 13:47:00,88.1,70.0,30.09,SE,124,4.0,5.0,56,0.00,,,0.00,weatherlink.com 1.10,2018-05-23 17:47:00,